Nebraska City, NE

5:00 PM CST on December 07, 2016 (GMT -0600)
Nebraska City Municipal

Weather History for KAFK - February, 2014

Change the Weather History Date:

Sunday, February 23, 2014

  Actual Average (KSDA) Record (KSDA)
Temperature  
Mean Temperature 26 °F -  
Max Temperature 29 °F 43 °F 71 °F (2002)
Min Temperature 22 °F 22 °F -12 °F (1989)
Degree Days  
Heating Degree Days 40    
Moisture  
Dew Point 13 °F    
Average Humidity 57    
Maximum Humidity 70    
Minimum Humidity 44    
Precipitation  
Precipitation 0.00 in - - ()
Sea Level Pressure  
Sea Level Pressure 30.30 in    
Wind  
Wind Speed 9 mph (NNE)    
Max Wind Speed 16 mph    
Max Gust Speed 20 mph    
Visibility 10 miles    
Events      
Averages and records for this station are not official NWS values.
T = Trace of Precipitation, MM = Missing Value Source: NWS Daily Summary

Daily Weather History Graph

Daily Weather History Graph

Search for Another Location

Airport or City:

Trip Planner

Search our weather history database for the weather conditions in past years. The results will help you decide how hot, cold, wet, or windy it might be!

Date:

Astronomy

Feb. 23, 2014 Rise Set
Actual Time 7:06 AM CST 6:08 PM CST
Civil Twilight 6:38 AM CST 6:35 PM CST
Nautical Twilight 6:06 AM CST 7:07 PM CST
Astronomical Twilight 5:35 AM CST 7:39 PM CST
Moon 2:06 AM CST (2/23) 12:10 PM CST (2/23)
Length of Visible Light 11h 57m
Length of Day
11h 01m
Last Quarter, 38% of the Moon is Illuminated
Feb 23
Last Quarter
Mar 1
New
Mar 8
First Quarter
Mar 16
Full
Mar 23
Last Quarter

Hourly Weather History & Observations

Time (CST) Temp. Windchill Dew Point Humidity Pressure Visibility Wind Dir Wind Speed Gust Speed Precip Events Conditions
12:15 AM 28.9 °F 20.4 °F 20.1 °F 70% 30.19 in 10.0 mi NNE 9.2 mph - N/A   Overcast
12:35 AM 28.9 °F 21.9 °F 19.8 °F 69% 30.20 in 10.0 mi NNE 6.9 mph - N/A   Overcast
12:55 AM 28.9 °F 18.2 °F 19.9 °F 69% 30.19 in 10.0 mi NNE 13.8 mph - N/A   Overcast
1:15 AM 28.4 °F 19.7 °F 19.0 °F 68% 30.19 in 10.0 mi NNE 9.2 mph - N/A   Overcast
1:35 AM 28.2 °F 18.3 °F 18.5 °F 67% 30.19 in 10.0 mi NNE 11.5 mph - N/A   Overcast
1:55 AM 28.0 °F 16.5 °F 17.8 °F 65% 30.19 in 10.0 mi NNE 15.0 mph - N/A   Overcast
2:15 AM 27.9 °F 16.8 °F 17.2 °F 64% 30.20 in 10.0 mi NNE 13.8 mph 17.3 mph N/A   Overcast
2:35 AM 27.5 °F 18.0 °F 16.9 °F 64% 30.20 in 10.0 mi NE 10.4 mph - N/A   Overcast
2:55 AM 27.5 °F 17.4 °F 15.8 °F 61% 30.20 in 10.0 mi NE 11.5 mph - N/A   Overcast
3:15 AM 27.1 °F 16.4 °F 15.8 °F 62% 30.21 in 10.0 mi NE 12.7 mph - N/A   Mostly Cloudy
3:35 AM 26.6 °F 16.2 °F 14.5 °F 60% 30.22 in 10.0 mi NE 11.5 mph - N/A   Mostly Cloudy
3:55 AM 26.6 °F 15.7 °F 14.9 °F 61% 30.21 in 10.0 mi NE 12.7 mph - N/A   Overcast
4:15 AM 26.2 °F 17.1 °F 14.2 °F 60% 30.21 in 10.0 mi NE 9.2 mph - N/A   Overcast
4:35 AM 26.1 °F 15.6 °F 14.2 °F 61% 30.22 in 10.0 mi NE 11.5 mph - N/A   Overcast
4:55 AM 25.5 °F 15.5 °F 14.7 °F 64% 30.22 in 10.0 mi NE 10.4 mph - N/A   Overcast
5:15 AM 25.3 °F 16.0 °F 15.1 °F 65% 30.23 in 10.0 mi NE 9.2 mph - N/A   Mostly Cloudy
5:35 AM 24.6 °F 14.4 °F 14.9 °F 67% 30.22 in 10.0 mi NE 10.4 mph - N/A   Scattered Clouds
5:55 AM 24.3 °F 14.6 °F 14.7 °F 67% 30.25 in 10.0 mi NE 9.2 mph - N/A   Clear
6:15 AM 23.9 °F 13.5 °F 14.5 °F 67% 30.26 in 10.0 mi NNE 10.4 mph - N/A   Mostly Cloudy
6:35 AM 23.9 °F 13.5 °F 14.9 °F 69% 30.26 in 10.0 mi NNE 10.4 mph - N/A   Overcast
6:55 AM 23.9 °F 13.5 °F 14.7 °F 68% 30.27 in 10.0 mi NNE 10.4 mph - N/A   Overcast
7:15 AM 23.7 °F 13.3 °F 14.0 °F 66% 30.27 in 10.0 mi NNE 10.4 mph - N/A   Overcast
7:35 AM 23.5 °F 13.0 °F 14.7 °F 69% 30.29 in 10.0 mi NNE 10.4 mph - N/A   Overcast
7:55 AM 23.5 °F 13.7 °F 15.1 °F 70% 30.28 in 10.0 mi NNE 9.2 mph - N/A   Overcast
8:15 AM 23.5 °F 13.0 °F 15.1 °F 70% 30.30 in 10.0 mi NNE 10.4 mph - N/A   Mostly Cloudy
8:35 AM 23.9 °F 11.7 °F 11.7 °F 60% 30.30 in 10.0 mi NNE 13.8 mph - N/A   Scattered Clouds
8:55 AM 23.5 °F 11.3 °F 11.7 °F 61% 30.31 in 10.0 mi NNE 13.8 mph - N/A   Scattered Clouds
9:15 AM 23.5 °F 11.8 °F 11.8 °F 61% 30.31 in 10.0 mi NE 12.7 mph - N/A   Mostly Cloudy
9:35 AM 23.9 °F 10.8 °F 11.5 °F 59% 30.32 in 10.0 mi NNE 16.1 mph - N/A   Overcast
9:55 AM 23.9 °F 12.3 °F 10.8 °F 57% 30.33 in 10.0 mi NNE 12.7 mph - N/A   Overcast
10:15 AM 24.1 °F 12.5 °F 11.1 °F 58% 30.33 in 10.0 mi North 12.7 mph - N/A   Overcast
10:35 AM 24.4 °F 13.0 °F 11.8 °F 59% 30.34 in 10.0 mi NNE 12.7 mph - N/A   Overcast
10:55 AM 25.5 °F 15.5 °F 11.5 °F 55% 30.35 in 10.0 mi North 10.4 mph - N/A   Overcast
11:15 AM 25.7 °F 15.1 °F 11.1 °F 54% 30.36 in 10.0 mi North 11.5 mph - N/A   Overcast
11:35 AM 27.1 °F 16.9 °F 10.4 °F 49% 30.35 in 10.0 mi North 11.5 mph 16.1 mph N/A   Overcast
11:55 AM 26.4 °F 16.6 °F 7.0 °F 44% 30.35 in 10.0 mi NE 10.4 mph 19.6 mph N/A   Overcast
12:15 PM 27.3 °F 16.1 °F 7.9 °F 44% 30.35 in 10.0 mi North 13.8 mph 18.4 mph N/A   Overcast
12:35 PM 27.1 °F 16.9 °F 7.9 °F 44% 30.35 in 10.0 mi NNE 11.5 mph 17.3 mph N/A   Overcast
12:55 PM 27.1 °F 18.2 °F 7.9 °F 44% 30.35 in 10.0 mi NNE 9.2 mph - N/A   Overcast
1:15 PM 27.7 °F 17.6 °F 9.1 °F 46% 30.33 in 10.0 mi NNE 11.5 mph - N/A   Overcast
1:35 PM 27.7 °F 18.8 °F 8.8 °F 45% 30.33 in 10.0 mi North 9.2 mph - N/A   Overcast
1:55 PM 27.7 °F 19.6 °F 8.6 °F 45% 30.33 in 10.0 mi NNE 8.1 mph - N/A   Overcast
2:15 PM 28.0 °F 20.8 °F 9.7 °F 46% 30.33 in 10.0 mi North 6.9 mph - N/A   Overcast
2:35 PM 28.0 °F 18.6 °F 9.3 °F 45% 30.32 in 10.0 mi NE 10.4 mph - N/A   Overcast
2:55 PM 28.4 °F 18.0 °F 9.9 °F 46% 30.33 in 10.0 mi NNE 12.7 mph - N/A   Overcast
3:15 PM 28.4 °F 19.7 °F 9.3 °F 45% 30.32 in 10.0 mi NNE 9.2 mph - N/A   Overcast
3:35 PM 28.4 °F 19.1 °F 9.5 °F 45% 30.33 in 10.0 mi NNE 10.4 mph - N/A   Overcast
3:55 PM 28.4 °F 20.4 °F 9.9 °F 46% 30.33 in 10.0 mi NNE 8.1 mph - N/A   Overcast
4:15 PM 28.4 °F 21.2 °F 9.3 °F 45% 30.33 in 10.0 mi NNE 6.9 mph - N/A   Overcast
4:35 PM 28.9 °F 23.9 °F 9.3 °F 44% 30.33 in 10.0 mi North 4.6 mph - N/A   Overcast
4:55 PM 29.1 °F 25.4 °F 9.9 °F 45% 30.33 in 10.0 mi North 3.5 mph - N/A   Overcast
5:15 PM 28.4 °F - 9.1 °F 44% 30.33 in 10.0 mi Calm Calm - N/A   Scattered Clouds
5:35 PM 28.2 °F 24.4 °F 10.8 °F 48% 30.32 in 10.0 mi NE 3.5 mph - N/A   Clear
5:55 PM 27.7 °F - 11.7 °F 51% 30.33 in 10.0 mi Calm Calm - N/A   Clear
6:20 PM 27.5 °F - 9.9 °F 48% 30.33 in 10.0 mi Calm Calm - N/A   Scattered Clouds
6:35 PM 26.6 °F - 10.8 °F 51% 30.33 in 10.0 mi Calm Calm - N/A   Scattered Clouds
6:55 PM 27.0 °F - 10.4 °F 50% 30.34 in 10.0 mi Calm Calm - N/A   Scattered Clouds
7:15 PM 26.8 °F - 9.1 °F 47% 30.33 in 10.0 mi Calm Calm - N/A   Clear
7:35 PM 26.8 °F - 9.1 °F 47% 30.34 in 10.0 mi Calm Calm - N/A   Clear
7:55 PM 25.5 °F - 10.6 °F 53% 30.34 in 10.0 mi Calm Calm - N/A   Clear
8:15 PM 22.6 °F - 11.7 °F 63% 30.34 in 10.0 mi Calm Calm - N/A   Scattered Clouds
8:35 PM 23.9 °F - 11.1 °F 58% 30.33 in 10.0 mi Calm Calm - N/A   Scattered Clouds
8:55 PM 24.4 °F - 10.0 °F 54% 30.33 in 10.0 mi Calm Calm - N/A   Scattered Clouds
9:15 PM 23.0 °F - 11.8 °F 62% 30.33 in 10.0 mi Calm Calm - N/A   Mostly Cloudy
9:35 PM 23.9 °F - 11.8 °F 60% 30.35 in 10.0 mi Calm Calm - N/A   Mostly Cloudy
9:55 PM 24.4 °F - 11.8 °F 59% 30.35 in 10.0 mi Calm Calm - N/A   Overcast
10:15 PM 23.9 °F - 13.5 °F 64% 30.35 in 10.0 mi Calm Calm - N/A   Mostly Cloudy
10:35 PM 25.2 °F 20.9 °F 14.0 °F 63% 30.36 in 10.0 mi West 3.5 mph - N/A   Overcast
10:55 PM 25.3 °F 21.1 °F 15.6 °F 67% 30.36 in 10.0 mi WNW 3.5 mph - N/A   Overcast
11:15 PM 25.2 °F - 13.8 °F 62% 30.34 in 10.0 mi Calm Calm - N/A   Scattered Clouds
11:35 PM 24.6 °F 20.3 °F 13.3 °F 62% 30.35 in 10.0 mi WNW 3.5 mph - N/A   Scattered Clouds
11:55 PM 24.4 °F - 14.0 °F 65% 30.34 in 10.0 mi Calm Calm - N/A   Scattered Clouds